Weather History for Tanana, AK

Change the Weather History Date:

Thursday, March 14, 2013

  Actual Average Record
Temperature  
Mean Temperature 1 °F -  
Max Temperature 8 °F 18 °F 38 °F (1956)
Min Temperature -6 °F -5 °F -45 °F (1964)
Degree Days  
Heating Degree Days 64    
Moisture  
Dew Point -17 °F    
Average Humidity 42    
Maximum Humidity 49    
Minimum Humidity 38    
Precipitation  
Precipitation 0.00 in - - ()
Snow  
Snow 0.00 in - - ()
Snow Depth 12.00 in    
Sea Level Pressure  
Sea Level Pressure 30.24 in    
Wind  
Wind Speed 11 mph (East)    
Max Wind Speed 17 mph    
Max Gust Speed 34 mph    
Visibility 10 miles    
Events      
Averages and records for this station are not official NWS values.
T = Trace of Precipitation, MM = Missing Value Source: NWS Daily Summary

Daily Weather History Graph

Daily Weather History Graph

Search for Another Location

Airport:

Trip Planner

Search our weather history database for the weather conditions in past years. The results will help you decide how hot, cold, wet, or windy it might be!

Date:

Astronomy

Mar. 14, 2013 Rise Set
Actual Time 8:29 AM AKDT 8:07 PM AKDT
Civil Twilight 7:40 AM AKDT 8:56 PM AKDT
Nautical Twilight 6:41 AM AKDT 9:56 PM AKDT
Astronomical Twilight 5:35 AM AKDT 11:02 PM AKDT
Moon 8:27 AM AKDT (3/14) No Moon Set
Length of Visible Light 13h 16m
Length of Day
11h 37m
Waxing Crescent, 10% of the Moon is Illuminated
Mar 14
Waxing Crescent
Mar 19
First Quarter
Mar 27
Full
Apr 2
Last Quarter
Apr 10
New

Hourly Weather History & Observations

Time (AKDT) Temp. Windchill Dew Point Humidity Pressure Visibility Wind Dir Wind Speed Gust Speed Precip Events Conditions
12:52 AM -0.9 °F - -18.0 °F 44% 30.34 in 10.0 mi Calm Calm - N/A   Clear
1:52 AM -0.0 °F -20.7 °F -18.9 °F 41% 30.32 in 10.0 mi ENE 17.3 mph 24.2 mph N/A   Clear
2:52 AM -2.0 °F -21.2 °F -18.9 °F 45% 30.31 in 10.0 mi East 13.8 mph 19.6 mph N/A   Clear
3:52 AM -4.0 °F -25.8 °F -20.0 °F 46% 30.30 in 10.0 mi ENE 17.3 mph 24.2 mph N/A   Clear
4:52 AM -2.9 °F -23.1 °F -20.9 °F 42% 30.27 in 10.0 mi NE 15.0 mph 25.3 mph N/A   Clear
5:52 AM -2.9 °F -22.4 °F -20.9 °F 42% 30.25 in 10.0 mi East 13.8 mph 25.3 mph N/A   Clear
6:52 AM -4.0 °F -24.5 °F -20.9 °F 44% 30.24 in 10.0 mi East 15.0 mph 26.5 mph N/A   Clear
7:52 AM -6.0 °F -20.1 °F -20.9 °F 49% 30.23 in 10.0 mi ENE 6.9 mph - N/A   Clear
8:52 AM -5.1 °F -25.1 °F -20.9 °F 47% 30.21 in 10.0 mi ENE 13.8 mph 20.7 mph N/A   Partly Cloudy
9:52 AM -4.0 °F -25.2 °F -20.9 °F 44% 30.22 in 8.0 mi ENE 16.1 mph 34.5 mph N/A   Partly Cloudy
10:52 AM -2.9 °F -23.8 °F -18.9 °F 46% 30.22 in 10.0 mi ENE 16.1 mph 28.8 mph N/A   Partly Cloudy
11:52 AM -0.0 °F -18.0 °F -18.0 °F 43% 30.23 in 10.0 mi East 12.7 mph 32.2 mph N/A   Partly Cloudy
12:52 PM 1.0 °F -16.6 °F -18.0 °F 41% 30.23 in 10.0 mi East 12.7 mph 19.6 mph N/A   Partly Cloudy
1:52 PM 3.0 °F -10.5 °F -15.0 °F 43% 30.23 in 10.0 mi ESE 8.1 mph - N/A   Partly Cloudy
2:52 PM 5.0 °F -10.8 °F -15.0 °F 39% 30.22 in 10.0 mi ESE 11.5 mph - N/A   Partly Cloudy
3:52 PM 6.1 °F -11.6 °F -13.0 °F 41% 30.21 in 10.0 mi East 15.0 mph 20.7 mph N/A   Partly Cloudy
4:52 PM 8.1 °F -10.2 °F -13.0 °F 38% 30.20 in 10.0 mi East 17.3 mph 24.2 mph N/A   Clear
5:52 PM 8.1 °F -8.4 °F -13.0 °F 38% 30.20 in 10.0 mi East 13.8 mph 25.3 mph N/A   Clear
6:52 PM 7.0 °F -8.3 °F -13.0 °F 40% 30.20 in 10.0 mi East 11.5 mph 25.3 mph N/A   Partly Cloudy
7:52 PM 6.1 °F -4.3 °F -14.1 °F 39% 30.21 in 10.0 mi Variable 5.8 mph 18.4 mph N/A   Clear
8:52 PM 6.1 °F -9.5 °F -14.1 °F 39% 30.21 in 10.0 mi East 11.5 mph 29.9 mph N/A   Clear
9:52 PM 6.1 °F -5.6 °F -14.1 °F 39% 30.21 in 10.0 mi East 6.9 mph 17.3 mph N/A   Clear
10:52 PM 5.0 °F -10.0 °F -14.1 °F 41% 30.22 in 10.0 mi ESE 10.4 mph - N/A   Clear
11:52 PM 3.9 °F -8.2 °F -14.1 °F 43% 30.22 in 10.0 mi Variable 6.9 mph - N/A   Clear